EW1845 Weather Reports


Display with metric or nautical units.
time (UTC)temp
F
wind
direction
speed
MPH
gust
MPH
rain 1hr
in
rain 24hr
in
rain mn
in
humidity
%
barometer
mb
20260903152721 65 208 0.0 2.0 0.00 0.00 0.00 84 1013.6
20260903151740 65 184 0.0 1.0 0.00 0.00 0.00 85 1013.5
20260903151602 65 231 1.0 2.0 0.00 0.00 0.00 86 1013.5
20260903150105 64 25 0.0 1.0 0.00 0.00 0.00 87 1013.4
20260903145611 64 41 0.0 0.0 0.00 0.00 0.00 87 1013.4
20260903144554 64 41 0.0 0.0 0.00 0.00 0.00 87 1013.3
20260903144507 64 41 0.0 0.0 0.00 0.00 0.00 87 1013.4
20260903143538 64 41 0.0 0.0 0.00 0.00 0.00 87 1013.2
20260903143103 63 41 0.0 1.0 0.00 0.00 0.00 88 1013.2
20260903142518 63 41 0.0 1.0 0.00 0.00 0.00 89 1013.2
20260903141526 63 39 0.0 0.0 0.00 0.00 0.00 90 1013.1
20260903141502 62 39 0.0 1.0 0.00 0.00 0.00 90 1013.1
20260903140524 62 39 0.0 0.0 0.00 0.00 0.00 89 1013.0
20260903140010 62 38 0.0 1.0 0.00 0.00 0.00 88 1013.0
20260903135454 63 39 0.0 0.0 0.00 0.00 0.00 88 1012.9
20260903134633 63 38 0.0 1.0 0.00 0.00 0.00 88 1012.9
20260903134505 63 39 0.0 0.0 0.00 0.00 0.00 88 1012.8
20260903133003 63 40 0.0 3.0 0.00 0.00 0.00 88 1012.9
20260903132333 64 34 0.0 1.0 0.00 0.00 0.00 88 1012.8
20260903131602 63 48 0.0 2.0 0.00 0.00 0.00 88 1012.9
20260903131321 64 48 0.0 1.0 0.00 0.00 0.00 88 1012.9
20260903130326 64 44 0.0 2.0 0.00 0.00 0.00 88 1012.9
20260903130109 63 44 0.0 3.0 0.00 0.00 0.00 89 1013.0
20260903125342 64 49 0.0 1.0 0.00 0.00 0.00 89 1012.8
20260903124503 63 41 0.0 3.0 0.00 0.00 0.00 89 1012.9
20260903123108 63 44 0.0 2.0 0.00 0.00 0.00 89 1012.9
20260903122113 64 18 0.0 0.0 0.00 0.00 0.00 89 1012.8
20260903121505 63 20 0.0 1.0 0.00 0.00 0.00 90 1012.9
20260903120004 63 20 2.0 5.0 0.00 0.00 0.00 90 1012.9
20260903115957 64 32 0.0 4.0 0.00 0.00 0.00 90 1012.8
20260903115013 63 36 0.0 0.0 0.00 0.00 0.00 89 1013.0
20260903114607 63 37 0.0 5.0 0.00 0.00 0.00 90 1013.0
20260903114000 63 40 1.0 3.0 0.00 0.00 0.00 90 1013.1
20260903113013 63 337 1.0 4.0 0.00 0.00 0.00 90 1013.0
20260903113004 63 355 1.0 3.0 0.00 0.00 0.00 90 1013.0
20260903111602 63 69 0.0 4.0 0.00 0.00 0.00 89 1013.1
20260903110105 63 45 1.0 4.0 0.00 0.00 0.00 89 1013.1
20260903105719 64 27 0.0 6.0 0.00 0.00 0.00 88 1013.1
20260903104655 64 34 1.0 5.0 0.00 0.00 0.00 88 1013.2
20260903104503 63 49 2.0 5.0 0.00 0.00 0.00 88 1013.2
20260903103701 64 51 1.0 5.0 0.00 0.00 0.00 88 1013.2
20260903103102 63 352 1.0 5.0 0.00 0.00 0.00 88 1013.3
20260903102705 64 342 0.0 3.0 0.00 0.00 0.00 88 1013.2
20260903101507 63 34 0.0 3.0 0.00 0.00 0.00 88 1013.2
20260903100524 64 43 1.0 4.0 0.00 0.00 0.00 87 1013.2
20260903100003 63 35 2.0 4.0 0.00 0.00 0.00 87 1013.3
20260903095501 63 36 0.0 4.0 0.00 0.00 0.00 86 1013.3
20260903094605 63 39 0.0 4.0 0.00 0.00 0.00 86 1013.3
20260903094456 63 44 0.0 0.0 0.00 0.00 0.00 86 1013.3
20260903093002 63 60 0.0 4.0 0.00 0.00 0.00 86 1013.5
20260903092313 64 52 2.0 9.0 0.00 0.00 0.00 86 1013.5
20260903091603 63 39 3.0 6.0 0.00 0.00 0.00 87 1013.6
20260903091246 63 70 0.0 1.0 0.00 0.00 0.00 86 1013.5
20260903090253 63 43 0.0 0.0 0.00 0.00 0.00 85 1013.6
20260903090103 63 43 0.0 3.0 0.00 0.00 0.00 85 1013.6
20260903084502 63 62 0.0 3.0 0.00 0.00 0.00 85 1013.8
20260903084057 63 45 0.0 1.0 0.00 0.00 0.00 85 1013.8
20260903083103 62 70 0.0 2.0 0.00 0.00 0.00 85 1013.8
20260903083023 63 75 0.0 0.0 0.00 0.00 0.00 85 1013.8
20260903082002 63 200 0.0 0.0 0.00 0.00 0.00 84 1013.8
20260903081503 62 37 0.0 4.0 0.00 0.00 0.00 85 1013.9
20260903080954 63 97 0.0 3.0 0.00 0.00 0.00 85 1014.0
20260903080002 62 350 0.0 1.0 0.00 0.00 0.00 84 1014.0
20260903075944 63 350 0.0 0.0 0.00 0.00 0.00 84 1013.9
20260903074956 63 337 0.0 0.0 0.00 0.00 0.00 82 1014.0
20260903074637 62 337 0.0 5.0 0.00 0.00 0.00 82 1014.0
20260903073115 63 291 0.0 1.0 0.00 0.00 0.00 81 1014.0
20260903072840 63 291 0.0 0.0 0.00 0.00 0.00 81 1013.9
20260903071503 63 290 0.0 1.0 0.00 0.00 0.00 80 1014.0
20260903070654 64 294 0.0 0.0 0.00 0.00 0.00 78 1013.9
20260903070008 63 191 0.0 0.0 0.00 0.00 0.00 77 1013.9
20260903065626 64 191 0.0 0.0 0.00 0.00 0.00 75 1013.9
20260903064616 63 219 0.0 0.0 0.00 0.00 0.00 76 1013.8
20260903064602 63 219 0.0 1.0 0.00 0.00 0.00 75 1013.9
20260903063002 62 219 0.0 1.0 0.00 0.00 0.00 75 1013.8
20260903062455 63 219 0.0 0.0 0.00 0.00 0.00 72 1013.8
20260903061615 63 219 0.0 1.0 0.00 0.00 0.00 73 1013.8
20260903061507 63 219 0.0 0.0 0.00 0.00 0.00 72 1013.7
20260903060433 64 219 0.0 0.0 0.00 0.00 0.00 71 1013.7
20260903060004 63 219 1.0 1.0 0.00 0.00 0.00 72 1013.7
20260903055440 64 219 0.0 0.0 0.00 0.00 0.00 71 1013.6
20260903054605 63 219 0.0 1.0 0.00 0.00 0.00 71 1013.6
20260903054442 64 219 0.0 0.0 0.00 0.00 0.00 72 1013.6
20260903053412 64 219 0.0 0.0 0.00 0.00 0.00 72 1013.6
20260903053002 63 219 0.0 1.0 0.00 0.00 0.00 72 1013.7
20260903051602 63 219 0.0 1.0 0.00 0.00 0.00 72 1013.6
20260903051241 64 219 0.0 0.0 0.00 0.00 0.00 71 1013.6
20260903050256 63 219 0.0 0.0 0.00 0.00 0.00 75 1013.6
20260903045229 63 218 0.0 0.0 0.00 0.00 0.00 76 1013.5
20260903044502 63 218 1.0 1.0 0.00 0.00 0.00 74 1013.6
20260903044211 63 218 0.0 0.0 0.00 0.00 0.00 75 1013.6
20260903043103 63 218 1.0 1.0 0.00 0.00 0.00 75 1013.6
20260903042022 64 218 0.0 0.0 0.00 0.00 0.00 75 1013.6
20260903041503 63 218 0.0 1.0 0.00 0.00 0.00 75 1013.6
20260903041039 64 217 0.0 0.0 0.00 0.00 0.00 75 1013.6
20260903040018 63 218 0.0 0.0 0.00 0.00 0.00 74 1013.5
20260903040002 63 217 0.0 1.0 0.00 0.00 0.00 74 1013.5
20260903034949 64 218 0.0 0.0 0.00 0.00 0.00 73 1013.5
20260903034602 63 218 0.0 1.0 0.00 0.00 0.00 73 1013.5
20260903034010 65 218 0.0 0.0 0.00 0.00 0.00 73 1013.4
20260903033019 64 217 0.0 0.0 0.00 0.00 0.00 74 1013.2
20260903033007 64 218 0.0 0.0 0.00 0.00 0.00 73 1013.2
20260903032010 65 218 0.0 0.0 0.00 0.00 0.00 72 1013.1
20260903031610 65 218 0.0 1.0 0.00 0.00 0.00 73 1013.1
20260903030940 65 218 0.0 0.0 0.00 0.00 0.00 71 1013.0
20260903025908 65 217 0.0 0.0 0.00 0.00 0.00 70 1012.9
20260903024858 66 217 0.0 0.0 0.00 0.00 0.00 69 1013.0
20260903024503 66 217 0.0 0.0 0.00 0.00 0.00 69 1013.0
20260903023917 67 218 0.0 0.0 0.00 0.00 0.00 68 1012.9
20260903023106 68 217 0.0 1.0 0.00 0.00 0.00 67 1012.9
20260903022940 68 218 0.0 0.0 0.00 0.00 0.00 67 1012.8
20260903021951 69 213 0.0 0.0 0.00 0.00 0.00 66 1012.8
20260903021503 69 170 0.0 2.0 0.00 0.00 0.00 66 1012.8
20260903020920 70 165 0.0 3.0 0.00 0.00 0.00 65 1012.7
20260903020008 70 179 1.0 4.0 0.00 0.00 0.00 65 1012.9
20260903015934 70 259 0.0 3.0 0.00 0.00 0.00 65 1012.9
20260903014928 71 193 0.0 2.0 0.00 0.00 0.00 63 1012.8
20260903014624 70 247 1.0 3.0 0.00 0.00 0.00 62 1012.9
20260903013907 71 242 1.0 4.0 0.00 0.00 0.00 62 1012.9
20260903013004 71 242 2.0 5.0 0.00 0.00 0.00 61 1013.0
20260903012841 72 266 1.0 4.0 0.00 0.00 0.00 61 1013.0
20260903011823 73 193 1.0 4.0 0.00 0.00 0.00 60 1012.8
20260903011621 72 245 1.0 5.0 0.00 0.00 0.00 59 1012.9
20260903010828 73 181 0.0 5.0 0.00 0.00 0.00 58 1012.9
20260903010112 73 155 0.0 6.0 0.00 0.00 0.00 56 1013.0
20260903004643 73 207 1.0 4.0 0.00 0.00 0.00 57 1012.9
20260903004506 73 250 1.0 5.0 0.00 0.00 0.00 57 1013.0
20260903003624 74 204 1.0 5.0 0.00 0.00 0.00 57 1012.9
20260903003127 73 221 2.0 6.0 0.00 0.00 0.00 57 1013.0
20260903002550 74 205 2.0 6.0 0.00 0.00 0.00 58 1012.9
20260903001528 74 229 2.0 6.0 0.00 0.00 0.00 57 1013.0
20260903001504 74 262 3.0 7.0 0.00 0.00 0.00 57 1013.0
20260903000507 75 214 3.0 6.0 0.00 0.00 0.00 58 1013.1
20260903000003 75 235 3.0 7.0 0.00 0.00 0.00 57 1013.0
20260902235531 76 208 2.0 7.0 0.00 0.00 0.00 57 1013.1
20260902234610 75 203 4.0 9.0 0.00 0.00 0.00 56 1013.1
20260902234531 76 209 4.0 9.0 0.00 0.00 0.00 56 1013.1
20260902233521 76 234 3.0 9.0 0.00 0.00 0.00 54 1013.1
20260902233002 76 238 3.0 8.0 0.00 0.00 0.00 54 1013.1
20260902232522 77 192 3.0 7.0 0.00 0.00 0.00 52 1013.1
20260902231603 78 203 4.0 8.0 0.00 0.00 0.00 50 1013.2
20260902231528 78 211 3.0 10.0 0.00 0.00 0.00 49 1013.2
20260902230105 78 167 4.0 9.0 0.00 0.00 0.00 47 1013.3
20260902225311 78 233 4.0 10.0 0.00 0.00 0.00 46 1013.3
20260902224501 78 180 3.0 9.0 0.00 0.00 0.00 46 1013.4
20260902224257 78 244 4.0 10.0 0.00 0.00 0.00 47 1013.4
20260902223240 79 211 4.0 10.0 0.00 0.00 0.00 49 1013.4
20260902223102 78 288 6.0 11.0 0.00 0.00 0.00 49 1013.5
20260902222252 79 164 4.0 10.0 0.00 0.00 0.00 52 1013.6
20260902221502 79 214 5.0 11.0 0.00 0.00 0.00 50 1013.7
20260902221251 79 205 4.0 11.0 0.00 0.00 0.00 50 1013.7
20260902220237 80 292 3.0 11.0 0.00 0.00 0.00 52 1013.7
20260902220003 79 148 2.0 12.0 0.00 0.00 0.00 52 1013.8
20260902215218 80 285 3.0 8.0 0.00 0.00 0.00 52 1013.8
20260902214603 80 210 4.0 9.0 0.00 0.00 0.00 52 1014.0
20260902214230 80 245 3.0 10.0 0.00 0.00 0.00 53 1013.9
20260902213158 80 256 3.0 10.0 0.00 0.00 0.00 53 1014.0
20260902213002 79 188 3.0 11.0 0.00 0.00 0.00 54 1014.1
20260902212207 80 156 3.0 7.0 0.00 0.00 0.00 53 1014.1
20260902211603 80 198 3.0 9.0 0.00 0.00 0.00 53 1014.2
20260902211206 80 239 3.0 10.0 0.00 0.00 0.00 54 1014.1
20260902210203 80 184 2.0 10.0 0.00 0.00 0.00 53 1014.3
20260902210108 80 182 5.0 11.0 0.00 0.00 0.00 53 1014.3
20260902205215 79 243 3.0 8.0 0.00 0.00 0.00 54 1014.3
20260902204505 79 200 4.0 9.0 0.00 0.00 0.00 55 1014.4
20260902203117 78 240 3.0 10.0 0.00 0.00 0.00 57 1014.4
20260902203115 78 241 3.0 8.0 0.00 0.00 0.00 57 1014.5
20260902202114 78 174 4.0 11.0 0.00 0.00 0.00 57 1014.5
20260902201503 78 234 5.0 12.0 0.00 0.00 0.00 57 1014.5
20260902201040 79 264 4.0 11.0 0.00 0.00 0.00 57 1014.5
20260902200010 79 236 4.0 8.0 0.00 0.00 0.00 54 1014.6
20260902200003 78 246 3.0 9.0 0.00 0.00 0.00 54 1014.6
20260902194937 80 176 3.0 8.0 0.00 0.00 0.00 48 1014.6
20260902194604 80 148 4.0 9.0 0.00 0.00 0.00 50 1014.7
20260902193944 81 57 2.0 7.0 0.00 0.00 0.00 48 1014.7
20260902193003 80 202 3.0 8.0 0.00 0.00 0.00 48 1015.0
20260902191810 79 174 2.0 7.0 0.00 0.00 0.00 50 1015.1
20260902191605 78 212 3.0 8.0 0.00 0.00 0.00 49 1015.1
20260902190759 78 177 2.0 8.0 0.00 0.00 0.00 54 1015.2
20260902190104 78 207 5.0 9.0 0.00 0.00 0.00 52 1015.4
20260902185759 78 210 1.0 11.0 0.00 0.00 0.00 53 1015.3
20260902184753 77 156 3.0 11.0 0.00 0.00 0.00 53 1015.5
20260902184503 76 219 4.0 12.0 0.00 0.00 0.00 56 1015.5
20260902183733 76 146 1.0 7.0 0.00 0.00 0.00 57 1015.5
20260902183103 76 231 0.0 8.0 0.00 0.00 0.00 57 1015.5
20260902182749 76 186 2.0 7.0 0.00 0.00 0.00 58 1015.5
20260902181807 76 177 2.0 8.0 0.00 0.00 0.00 57 1015.4
20260902181503 75 233 2.0 7.0 0.00 0.00 0.00 60 1015.5
20260902180005 74 198 3.0 9.0 0.00 0.00 0.00 59 1015.4
20260902175646 74 275 1.0 6.0 0.00 0.00 0.00 61 1015.4
20260902174708 73 146 2.0 7.0 0.00 0.00 0.00 62 1015.4
20260902174605 73 179 2.0 8.0 0.00 0.00 0.00 62 1015.4
20260902173718 73 222 2.0 7.0 0.00 0.00 0.00 63 1015.5
20260902173007 72 134 3.0 8.0 0.00 0.00 0.00 63 1015.6
20260902172729 73 295 1.0 7.0 0.00 0.00 0.00 63 1015.7
20260902171701 72 178 2.0 7.0 0.00 0.00 0.00 65 1015.6
20260902171604 72 161 3.0 8.0 0.00 0.00 0.00 64 1015.6
20260902170715 72 152 1.0 6.0 0.00 0.00 0.00 66 1015.4
20260902170104 72 152 1.0 5.0 0.00 0.00 0.00 66 1015.4
20260902165657 71 246 0.0 5.0 0.00 0.00 0.00 68 1015.4
20260902164711 71 156 1.0 5.0 0.00 0.00 0.00 70 1015.3
20260902164609 70 154 0.0 6.0 0.00 0.00 0.00 70 1015.2
20260902163638 70 184 0.0 3.0 0.00 0.00 0.00 71 1015.3
20260902163002 70 11 0.0 4.0 0.00 0.00 0.00 73 1015.4
20260902162635 69 214 0.0 3.0 0.00 0.00 0.00 73 1015.4
20260902161653 68 133 0.0 0.0 0.00 0.00 0.00 76 1015.4
20260902161605 68 203 1.0 4.0 0.00 0.00 0.00 75 1015.5
20260902160121 67 205 1.0 4.0 0.00 0.00 0.00 77 1015.4
20260902154506 65 212 0.0 2.0 0.00 0.00 0.00 80 1015.3
20260902154423 65 248 0.0 1.0 0.00 0.00 0.00 81 1015.3